TimeCST,TemperatureF,Dew PointF,Humidity,Sea Level PressureIn,VisibilityMPH,Wind Direction,Wind SpeedMPH,Gust SpeedMPH,PrecipitationIn,Events,Conditions,WindDirDegrees,DateUTC
12:53 AM,25.0,21.0,85,30.47,10.0,NW,5.8,-,N/A,,Clear,320,2012-11-16 06:53:00
1:53 AM,23.0,18.0,81,30.47,10.0,NNW,5.8,-,N/A,,Clear,340,2012-11-16 07:53:00
2:53 AM,23.0,18.0,81,30.48,10.0,NNW,4.6,-,N/A,,Clear,340,2012-11-16 08:53:00
3:53 AM,21.0,16.0,81,30.48,10.0,NNW,4.6,-,N/A,,Clear,340,2012-11-16 09:53:00
4:53 AM,21.0,15.1,78,30.48,10.0,NNW,5.8,-,N/A,,Clear,330,2012-11-16 10:53:00
5:53 AM,19.0,12.9,77,30.48,10.0,NNW,4.6,-,N/A,,Clear,340,2012-11-16 11:53:00
6:53 AM,18.0,12.9,81,30.48,10.0,North,5.8,-,N/A,,Clear,10,2012-11-16 12:53:00
7:53 AM,21.9,15.1,75,30.50,10.0,North,3.5,-,N/A,,Clear,360,2012-11-16 13:53:00
8:53 AM,28.9,19.0,67,30.50,10.0,NE,3.5,-,N/A,,Clear,40,2012-11-16 14:53:00
9:53 AM,33.1,21.0,61,30.50,10.0,East,3.5,-,N/A,,Clear,80,2012-11-16 15:53:00
10:53 AM,37.9,21.9,53,30.50,10.0,Calm,Calm,-,N/A,,Clear,0,2012-11-16 16:53:00
11:53 AM,42.1,25.0,51,30.48,10.0,Calm,Calm,-,N/A,,Clear,0,2012-11-16 17:53:00
12:53 PM,45.0,26.1,48,30.47,10.0,WSW,6.9,-,N/A,,Clear,240,2012-11-16 18:53:00
1:53 PM,46.9,24.1,41,30.45,10.0,SSW,4.6,-,N/A,,Clear,210,2012-11-16 19:53:00
2:53 PM,48.0,26.1,42,30.42,10.0,South,8.1,-,N/A,,Clear,170,2012-11-16 20:53:00
3:53 PM,46.9,26.1,44,30.43,10.0,South,4.6,-,N/A,,Clear,180,2012-11-16 21:53:00
4:53 PM,42.1,26.1,53,30.41,10.0,SSE,8.1,-,N/A,,Clear,150,2012-11-16 22:53:00
5:53 PM,37.0,25.0,62,30.40,10.0,SE,8.1,-,N/A,,Clear,140,2012-11-16 23:53:00
6:53 PM,36.0,27.0,70,30.40,10.0,SSE,8.1,-,N/A,,Clear,150,2012-11-17 00:53:00
7:53 PM,36.0,28.0,73,30.39,10.0,SSE,9.2,-,N/A,,Clear,150,2012-11-17 01:53:00
8:53 PM,30.0,25.0,82,30.40,9.0,South,5.8,-,N/A,,Clear,180,2012-11-17 02:53:00
9:53 PM,30.0,25.0,82,30.39,8.0,South,6.9,-,N/A,,Clear,170,2012-11-17 03:53:00
10:53 PM,30.0,26.1,85,30.39,7.0,South,6.9,-,N/A,,Clear,180,2012-11-17 04:53:00
11:53 PM,28.0,24.1,85,30.39,6.0,South,6.9,-,N/A,,Clear,180,2012-11-17 05:53:00